| time (UTC) | temp F | wind direction | speed MPH | gust MPH | rain 1hr in | rain 24hr in | rain mn in | humidity % | barometer mb |
| 20260502221544 | 44 | 360 | 0.0 | 3.0 | 0.00 | 0.05 | 0.00 | 73 | 1016.7 |
| 20260502220045 | 44 | 0 | 0.0 | 2.0 | 0.00 | 0.05 | 0.00 | 74 | 1016.7 |
| 20260502214553 | 44 | 360 | 0.0 | 2.0 | 0.00 | 0.05 | 0.00 | 72 | 1016.6 |
| 20260502213047 | 44 | 0 | 0.0 | 4.0 | 0.00 | 0.05 | 0.00 | 72 | 1016.5 |
| 20260502211546 | 44 | 32 | 1.0 | 4.0 | 0.00 | 0.05 | 0.00 | 68 | 1016.5 |
| 20260502210054 | 44 | 0 | 0.0 | 8.0 | 0.00 | 0.05 | 0.00 | 65 | 1016.4 |
| 20260502204552 | 45 | 360 | 2.0 | 8.0 | 0.00 | 0.05 | 0.00 | 68 | 1016.4 |
| 20260502203047 | 44 | 20 | 1.0 | 5.0 | 0.00 | 0.05 | 0.00 | 71 | 1016.5 |
| 20260502201548 | 44 | 9 | 3.0 | 8.0 | 0.00 | 0.05 | 0.00 | 69 | 1016.6 |
| 20260502200053 | 44 | 32 | 2.0 | 8.0 | 0.00 | 0.05 | 0.00 | 71 | 1016.6 |
| 20260502194551 | 45 | 26 | 3.0 | 9.0 | 0.00 | 0.05 | 0.00 | 69 | 1016.7 |
| 20260502193046 | 45 | 360 | 4.0 | 9.0 | 0.00 | 0.05 | 0.00 | 65 | 1016.7 |
| 20260502191548 | 44 | 360 | 2.0 | 8.0 | 0.00 | 0.05 | 0.00 | 69 | 1016.8 |
| 20260502190048 | 45 | 360 | 3.0 | 8.0 | 0.00 | 0.05 | 0.00 | 68 | 1016.9 |
| 20260502184542 | 44 | 30 | 4.0 | 11.0 | 0.00 | 0.05 | 0.00 | 71 | 1016.9 |
| 20260502183047 | 44 | 360 | 3.0 | 10.0 | 0.00 | 0.05 | 0.00 | 73 | 1017.0 |
| 20260502181552 | 45 | 360 | 4.0 | 9.0 | 0.00 | 0.05 | 0.00 | 70 | 1017.0 |
| 20260502163051 | 44 | 360 | 3.0 | 12.0 | 0.00 | 0.05 | 0.00 | 74 | 1017.2 |
| 20260502161542 | 43 | 360 | 5.0 | 12.0 | 0.00 | 0.05 | 0.00 | 72 | 1017.3 |
| 20260502151559 | 44 | 9 | 6.0 | 15.0 | 0.00 | 0.05 | 0.00 | 75 | 1017.2 |
| 20260502123051 | 36 | 327 | 11.0 | 14.0 | 0.00 | 0.08 | 0.00 | 84 | 1016.6 |
| 20260502121546 | 36 | 339 | 9.0 | 14.0 | 0.00 | 0.08 | 0.00 | 83 | 1016.5 |
| 20260502114541 | 35 | 360 | 10.0 | 13.0 | 0.00 | 0.08 | 0.00 | 84 | 1016.4 |
| 20260502113051 | 34 | 360 | 8.0 | 11.0 | 0.00 | 0.08 | 0.00 | 86 | 1016.5 |
| 20260502111548 | 33 | 360 | 6.0 | 9.0 | 0.00 | 0.08 | 0.00 | 87 | 1016.5 |
| 20260502110052 | 33 | 302 | 3.0 | 5.0 | 0.00 | 0.08 | 0.00 | 88 | 1016.3 |
| 20260502104548 | 33 | 360 | 4.0 | 7.0 | 0.00 | 0.08 | 0.00 | 87 | 1016.3 |
| 20260502103041 | 33 | 293 | 3.0 | 7.0 | 0.00 | 0.08 | 0.00 | 87 | 1016.2 |
| 20260502101556 | 33 | 305 | 5.0 | 8.0 | 0.00 | 0.08 | 0.00 | 87 | 1016.1 |
| 20260502100113 | 34 | 306 | 6.0 | 9.0 | 0.00 | 0.08 | 0.00 | 87 | 1016.3 |
| 20260502070048 | 36 | 306 | 3.0 | 7.0 | 0.00 | 0.08 | 0.00 | 87 | 1015.9 |
| 20260502064543 | 37 | 292 | 4.0 | 7.0 | 0.00 | 0.08 | 0.00 | 88 | 1016.2 |
| 20260502063049 | 37 | 294 | 3.0 | 7.0 | 0.00 | 0.08 | 0.00 | 88 | 1016.2 |
| 20260502061544 | 38 | 304 | 6.0 | 9.0 | 0.00 | 0.08 | 0.00 | 88 | 1016.1 |
| 20260502060041 | 38 | 297 | 5.0 | 9.0 | 0.00 | 0.08 | 0.00 | 90 | 1016.2 |
| 20260502054549 | 38 | 280 | 5.0 | 7.0 | 0.00 | 0.08 | 0.00 | 92 | 1016.4 |
| 20260502053052 | 38 | 266 | 4.0 | 8.0 | 0.00 | 0.08 | 0.00 | 92 | 1016.4 |
| 20260502051548 | 39 | 273 | 5.0 | 7.0 | 0.00 | 0.08 | 0.00 | 92 | 1016.3 |
| 20260502050048 | 39 | 269 | 4.0 | 10.0 | 0.00 | 0.08 | 0.00 | 92 | 1016.4 |
| 20260502044546 | 40 | 263 | 2.0 | 4.0 | 0.00 | 0.08 | 0.00 | 92 | 1016.3 |
| 20260502043047 | 40 | 249 | 2.0 | 5.0 | 0.00 | 0.08 | 0.00 | 92 | 1016.4 |
| 20260502041547 | 40 | 260 | 2.0 | 4.0 | 0.00 | 0.08 | 0.00 | 93 | 1016.3 |
| 20260502040044 | 40 | 259 | 3.0 | 4.0 | 0.00 | 0.08 | 0.00 | 92 | 1016.3 |
| 20260502034547 | 41 | 274 | 1.0 | 3.0 | 0.00 | 0.08 | 0.08 | 92 | 1016.3 |
| 20260502033050 | 40 | 254 | 1.0 | 3.0 | 0.00 | 0.08 | 0.08 | 92 | 1016.5 |
| 20260502031548 | 40 | 275 | 1.0 | 3.0 | 0.00 | 0.08 | 0.08 | 91 | 1016.5 |
| 20260502030044 | 40 | 214 | 0.0 | 3.0 | 0.00 | 0.08 | 0.08 | 91 | 1016.4 |
| 20260502024559 | 40 | 231 | 1.0 | 4.0 | 0.00 | 0.08 | 0.08 | 90 | 1016.3 |
| 20260502023045 | 41 | 217 | 2.0 | 4.0 | 0.00 | 0.08 | 0.08 | 89 | 1016.2 |
| 20260502021550 | 41 | 315 | 1.0 | 3.0 | 0.00 | 0.08 | 0.08 | 88 | 1015.9 |
| 20260502020042 | 41 | 360 | 2.0 | 10.0 | 0.00 | 0.08 | 0.08 | 88 | 1015.9 |
| 20260502014549 | 42 | 360 | 9.0 | 15.0 | 0.00 | 0.08 | 0.08 | 91 | 1016.0 |
| 20260502013047 | 41 | 360 | 1.0 | 4.0 | 0.00 | 0.08 | 0.08 | 93 | 1015.9 |
| 20260502011548 | 41 | 0 | 0.0 | 1.0 | 0.00 | 0.08 | 0.08 | 92 | 1015.5 |
| 20260502010048 | 41 | 0 | 0.0 | 0.0 | 0.01 | 0.08 | 0.08 | 92 | 1015.3 |
| 20260502004542 | 41 | 0 | 0.0 | 3.0 | 0.05 | 0.08 | 0.08 | 91 | 1015.3 |
| 20260502003041 | 40 | 51 | 0.0 | 2.0 | 0.05 | 0.08 | 0.08 | 91 | 1015.3 |
| 20260502001541 | 40 | 0 | 0.0 | 1.0 | 0.05 | 0.08 | 0.08 | 89 | 1015.4 |
| 20260502000049 | 41 | 0 | 1.0 | 9.0 | 0.04 | 0.07 | 0.07 | 87 | 1015.2 |
| 20260501234549 | 45 | 360 | 4.0 | 8.0 | 0.00 | 0.03 | 0.03 | 84 | 1014.9 |
| 20260501233047 | 45 | 0 | 0.0 | 5.0 | 0.00 | 0.03 | 0.03 | 83 | 1014.4 |
| 20260501231543 | 46 | 360 | 2.0 | 4.0 | 0.00 | 0.03 | 0.03 | 81 | 1014.3 |
| 20260501230058 | 47 | 360 | 4.0 | 9.0 | 0.00 | 0.03 | 0.03 | 78 | 1014.3 |
| 20260501224548 | 47 | 360 | 3.0 | 10.0 | 0.00 | 0.03 | 0.03 | 78 | 1014.2 |
| 20260501223054 | 47 | 360 | 4.0 | 13.0 | 0.00 | 0.03 | 0.03 | 76 | 1014.3 |